Location: Matrei
(47.1333°N, 11.4500°E)
Time: 04:40:56
(UTC+00:00)

IRS-1D - Pass Details

Date: 07 June 2020
Orbit: 740 x 817 km, 98.6° (Epoch: 10 July)

Event Time Altitude Azimuth Distance (km) Brightness Sun altitude
Rises 01:05:50 0° 18° (NNE) 3,332 8.6 -15.6°
Reaches altitude 10° 01:08:17 10° 24° (NNE) 2,387 7.4 -15.4°
Maximum altitude 01:13:25 51° 100° (E) 992 4.2 -15.0°
Enters shadow 01:17:32 15° 172° (S) 1,995 5.2 -14.7°
